This is the latest recevied weather packets stored in our database for station/object NZ3C. If no packets are shown the sender has not sent any weather packets the latest 10 day(s).
| Time | Temp. | Humidity | Pressure | Rain* | Wind** | Luminosity | Snow |
|---|---|---|---|---|---|---|---|
| 1777720881 | 12.22° C | 96% | 1013.6 hPa | 1.27 mm | - | 18 W/m² | - |
| 1777720579 | 12.22° C | 96% | 1013.5 hPa | 1.27 mm | - | 18 W/m² | - |
| 1777720276 | 12.22° C | 96% | 1013.6 hPa | 0 mm | - | 13 W/m² | - |
| 1777719974 | 12.22° C | 96% | 1013.5 hPa | 1.78 mm | - | 12 W/m² | - |
| 1777719671 | 12.22° C | 96% | 1013.5 hPa | 1.78 mm | - | 7 W/m² | - |
| 1777719368 | 12.22° C | 96% | 1013.4 hPa | 0 mm | - | 4 W/m² | - |
| 1777719066 | 12.22° C | 96% | 1013.4 hPa | 1.27 mm | - | 3 W/m² | - |
| 1777718762 | 12.22° C | 96% | 1013.5 hPa | 0 mm | - | 3 W/m² | - |
| 1777718460 | 12.22° C | 96% | 1013.2 hPa | 1.78 mm | - | 2 W/m² | - |
| 1777718158 | 12.22° C | 96% | 1013.3 hPa | 0 mm | - | 2 W/m² | - |
| 1777717856 | 12.22° C | 96% | 1013.2 hPa | 0 mm | - | 1 W/m² | - |
| 1777717551 | 12.22° C | 96% | 1013.2 hPa | 1.27 mm | - | 1 W/m² | - |
| 1777717249 | 12.22° C | 95% | 1013.2 hPa | 1.27 mm | - | 1 W/m² | - |
| 1777716947 | 12.22° C | 95% | 1013.3 hPa | 0 mm | - | 0 W/m² | - |
| 1777716645 | 12.22° C | 95% | 1013.2 hPa | 1.78 mm | - | 0 W/m² | - |
| 1777716343 | 12.22° C | 95% | 1013.2 hPa | 1.78 mm | - | 0 W/m² | - |
| 1777716041 | 12.22° C | 95% | 1013.1 hPa | 1.27 mm | - | 0 W/m² | - |
| 1777715738 | 12.22° C | 94% | 1013.1 hPa | 1.27 mm | - | 0 W/m² | - |
| 1777715436 | 12.22° C | 94% | 1013 hPa | 1.78 mm | - | 0 W/m² | - |
| 1777715133 | 12.22° C | 94% | 1013.2 hPa | 1.78 mm | - | 0 W/m² | - |
| 1777714831 | 12.22° C | 94% | 1013.1 hPa | 1.27 mm | - | 0 W/m² | - |
| 1777714530 | 12.22° C | 93% | 1013.4 hPa | 1.27 mm | - | 0 W/m² | - |
| 1777714227 | 12.22° C | 93% | 1013.2 hPa | 0 mm | - | 0 W/m² | - |
| 1777713924 | 12.22° C | 93% | 1013.2 hPa | 0 mm | - | 0 W/m² | - |
| 1777713621 | 12.22° C | 93% | 1013.2 hPa | 0 mm | - | 0 W/m² | - |
* Rain latest hour (hover to see other rain measurements)
** Current wind speed in m/s (hover to see current wind gust speed)